ETSBCYYR

Guest
Details From ETSB - Buchel
To CYYR - Goose Bay
Flight Number -
Tags Decoded
Created
Modified
Stats Distance 2,707 nm / 5,013 km
Max Altitude 0 ft / 0 m
Waypoints 8
Social Downloads 0
Likes 0
Share VATSIM

Download

Looking for another format? Having issues loading an existing format? Contact us
Advertisement - Login to hide

Notes

Decoded

Route

ETSB KEF BIPA BGKK BGBW CCZ2 YYR CYYR

ID Type Via Altitude Latitude Longitude Leg Dist Tot Dist Heading (true) Name
O ETSB APT - 0 ft / 0 m 50.16397˚ 7.05471˚ - 0 nm - -
KEF VOR - 0 ft / 0 m 63.98694˚ -22.61444˚ 1255 nm 1255 nm 323° / 297° KEFLAVIK VORTAC
BIPA APT - 0 ft / 0 m 65.55916˚ -23.97908˚ 100 nm 1355 nm 340° / 339° -
BGKK APT - 0 ft / 0 m 65.57304˚ -37.13664˚ 326 nm 1682 nm 276° / 264° -
BGBW APT - 0 ft / 0 m 61.15435˚ -45.43692˚ 346 nm 2028 nm 224° / 216° -
CCZ2 APT - 0 ft / 0 m 54.17929˚ -58.46295˚ 590 nm 2618 nm 231° / 220° Rigolet
YYR VOR - 0 ft / 0 m 53.31972˚ -60.29472˚ 83 nm 2701 nm 232° / 231° GOOSE VOR-DME
O CYYR APT - 0 ft / 0 m 53.33389˚ -60.43639˚ 5 nm 2706 nm 280° / 279° -

Altitude Profile

Advertisement - Login to hide

Weather


0- 5 10 15 20 25 30 35+ Temperature / ° C

Clouds and Precipitation
Forecast for 2018-05-20 18:00 UTC. Updated 3 hours ago

Ground ~20,000 ft ~40,000 ft Winds

ETSB

Details ICAO ETSB
Name BUCHEL
Region Germany - Military
Timezone Europe/Berlin (UTC+2.0)
Stats Elevation 1,568 ft / 478 m (AMSL)
Location 50.173808° 7.063321°
Runways 1
Magnetic Variation 1.978° E

METAR

ETSB 201920Z AUTO VRB03KT 5000 // ////// 13/10 Q1019 ///

Decode

TAF

Not found

Departure Runways

ID Width Length Bearing (true) Bearing (mag) Surface Threshold Offset Overrun Length
03 148 ft / 45 m 8,232 ft / 2,509 m 29.26° 27.28° Asphalt 0 ft / 0 m 902 ft / 275 m
21 148 ft / 45 m 8,232 ft / 2,509 m 209.28° 207.30° Asphalt 0 ft / 0 m 899 ft / 274 m

CYYR

Details ICAO CYYR (YYR)
Name Goose Bay
Region Canada
Timezone America/Goose_Bay (UTC-3.0)
Stats Elevation 160 ft / 49 m (AMSL)
Location 53.318820° -60.423890°
Runways 2
Magnetic Variation 20.871° W

METAR

CYYR 202000Z 32005KT 8SM -RA FEW002 SCT007 OVC019 04/03 A2933 RMK SF2SF2SC4 SLP935

Decode

TAF

TAF AMD CYYR 201744Z 2018/2118 04005KT 6SM -RA BR FEW003 OVC015 TEMPO 2018/2023 3SM -RA BR OVC003 BECMG 2018/2020 27010KT FM202300 29012KT P6SM OVC020 TEMPO 2023/2103 5SM -SHSN OVC015 BECMG 2023/2101 32015G25KT FM210300 30010KT P6SM BKN015 FM210900 VRB03KT P6SM SCT020 OVC040 TEMPO 2109/2118 BKN020 RMK NXT FCST BY 210000Z

Decode

Destination Runways

ID Width Length Bearing (true) Bearing (mag) Surface Threshold Offset Overrun Length
08 209 ft / 64 m 11,055 ft / 3,369 m 54.70° 75.57° Asphalt 0 ft / 0 m 1,000 ft / 305 m
16 200 ft / 61 m 9,515 ft / 2,900 m 132.96° 153.83° Asphalt 0 ft / 0 m 0 ft / 0 m
26 209 ft / 64 m 11,055 ft / 3,369 m 234.73° 255.60° Asphalt 0 ft / 0 m 1,000 ft / 305 m
34 200 ft / 61 m 9,515 ft / 2,900 m 312.99° 333.86° Asphalt 0 ft / 0 m 500 ft / 152 m

Popular Alternatives